This demonstration page uses our WeatherBlox Daily Observations layout. Learn more.

Left ArrowRight Arrow

Hourly Observations for September 29, 2022

Temp ( °F °C ) Dew Point ( °F °C ) Humidity (%) Winds ( mph kmh ) Pressure ( in mb ) Visibility ( mi km ) Precip ( " mm )
12:53 am 00:53 Clear 77 25 29 -1.7 17 17 SSE 21 33 29.80 1009 10 16 0.00 0.00
1:53 am 01:53 Clear 75 23.9 27 -2.8 17 17 S 10 17 29.80 1009 10 16 0.00 0.00
2:53 am 02:53 Clear 75 23.9 27 -2.8 17 17 WSW 5 7 29.80 1009 10 16 0.00 0.00
3:53 am 03:53 Clear 74 23.3 27 -2.8 17 17 SW 7 11 29.79 1009 10 16 0.00 0.00
4:53 am 04:53 Clear 61 16.1 31 -0.6 32 32 N 12 19 29.82 1010 10 16 0.00 0.00
5:53 am 05:53 Clear 55 12.8 30 -1.1 38 38 E 5 7 29.83 1010 10 16 0.00 0.00
6:53 am 06:53 Clear 57 13.9 31 -0.6 37 37 E 6 9 29.83 1010 10 16 0.00 0.00
7:53 am 07:53 Sunny 52 11.1 34 1.1 50 50 WNW 7 11 29.87 1012 10 16 0.00 0.00
8:53 am 08:53 Sunny 54 12.2 36 2.2 50 50 S 3 6 29.88 1012 10 16 0.00 0.00
9:53 am 09:53 Sunny 59 15 35 1.7 40 40 WSW 6 9 29.89 1012 10 16 0.00 0.00
10:53 am 10:53 Sunny 65 18.3 35 1.7 33 33 N 10 17 29.84 1011 10 16 0.00 0.00
11:53 am 11:53 Sunny 73 22.8 34 1.1 24 24 SW 8 13 29.86 1011 10 16 0.00 0.00
12:53 pm 12:53 Sunny 79 26.1 36 2.2 21 21 NNW 7 11 29.83 1010 10 16 0.00 0.00
1:53 pm 13:53 Sunny 81 27.2 36 2.2 20 20 NW 5 7 29.83 1010 10 16 0.00 0.00
2:53 pm 14:53 Partly Cloudy 80 26.7 38 3.3 22 22 NNW 6 9 29.82 1010 10 16 0.00 0.00
3:53 pm 15:53 Sunny 81 27.2 37 2.8 21 21 NNE 8 13 29.80 1009 10 16 0.00 0.00
4:53 pm 16:53 Sunny 81 27.2 38 3.3 21 21 ENE 8 13 29.81 1010 10 16 0.00 0.00
5:53 pm 17:53 Mostly Sunny 79 26.1 39 3.9 24 24 Calm 29.83 1010 10 16 0.00 0.00
6:22 pm 18:22 Cloudy 66 18.9 50 10 56 56 W 33 54 29.82 1010 7 11 0.00 0.00
6:53 pm 18:53 Cloudy 65 18.3 49 9.4 56 56 WNW 22 35 29.91 1013 10 16 0.01 0.13
7:14 pm 19:14 Mostly Cloudy 64 17.8 50 10 60 60 SW 20 31 29.91 1013 10 16 0.00 0.00
7:53 pm 19:53 Mostly Clear 62 16.7 50 10 65 65 WSW 17 28 29.98 1015 10 16 0.00 0.00
8:53 pm 20:53 Mostly Cloudy 61 16.1 51 10.6 70 70 WNW 13 20 29.98 1015 10 16 0.00 0.00
9:53 pm 21:53 Cloudy 59 15 53 11.7 81 81 NNW 7 11 30.00 1016 10 16 0.00 0.00
10:53 pm 22:53 Cloudy 59 15 53 11.7 81 81 W 9 15 30.00 1016 10 16 0.00 0.00
11:53 pm 23:53 Mostly Cloudy 58 14.4 53 11.7 84 84 Calm 30.00 1016 10 16 0.00 0.00

Powered by AerisWeather